TimeCDT,TemperatureF,Dew PointF,Humidity,Sea Level PressureIn,VisibilityMPH,Wind Direction,Wind SpeedMPH,Gust SpeedMPH,PrecipitationIn,Events,Conditions,WindDirDegrees,DateUTC
12:53 AM,77.0,72.0,84,29.94,10.0,SE,3.5,-,N/A,,Clear,140,2013-07-09 05:53:00
1:53 AM,75.0,71.1,87,29.94,10.0,SE,3.5,-,N/A,,Clear,130,2013-07-09 06:53:00
2:53 AM,75.0,71.1,87,29.95,10.0,SSE,4.6,-,N/A,,Clear,160,2013-07-09 07:53:00
3:53 AM,75.0,71.1,87,29.94,10.0,South,5.8,-,N/A,,Clear,170,2013-07-09 08:53:00
4:53 AM,75.0,70.0,84,29.93,10.0,South,6.9,-,N/A,,Clear,190,2013-07-09 09:53:00
5:53 AM,73.9,70.0,87,29.94,10.0,South,6.9,-,N/A,,Clear,180,2013-07-09 10:53:00
6:53 AM,75.0,71.1,87,29.96,10.0,SSW,6.9,-,N/A,,Overcast,200,2013-07-09 11:53:00
7:53 AM,77.0,71.1,82,29.95,10.0,Calm,Calm,-,N/A,,Mostly Cloudy,0,2013-07-09 12:53:00
8:53 AM,78.1,71.1,79,29.94,10.0,South,5.8,-,N/A,,Mostly Cloudy,170,2013-07-09 13:53:00
9:53 AM,79.0,71.1,77,29.92,10.0,SSE,6.9,-,0.00,,Mostly Cloudy,160,2013-07-09 14:53:00
10:53 AM,79.0,72.0,79,29.98,10.0,WSW,3.5,-,N/A,,Overcast,250,2013-07-09 15:53:00
11:53 AM,82.0,73.0,74,29.96,10.0,SSW,8.1,-,N/A,,Partly Cloudy,210,2013-07-09 16:53:00
12:53 PM,81.0,73.0,77,29.92,9.0,South,11.5,-,0.00,,Scattered Clouds,190,2013-07-09 17:53:00
1:53 PM,86.0,72.0,63,29.91,10.0,SSW,11.5,-,N/A,,Partly Cloudy,200,2013-07-09 18:53:00
2:53 PM,90.0,73.0,57,29.88,10.0,SSW,13.8,-,N/A,,Clear,200,2013-07-09 19:53:00
3:53 PM,91.0,75.0,59,29.87,10.0,South,13.8,-,N/A,,Clear,180,2013-07-09 20:53:00
4:53 PM,93.0,73.9,54,29.86,10.0,SW,11.5,-,N/A,,Clear,220,2013-07-09 21:53:00
5:53 PM,91.0,73.9,57,29.86,10.0,SW,6.9,-,N/A,,Mostly Cloudy,230,2013-07-09 22:53:00
6:53 PM,91.0,73.9,57,29.85,10.0,SW,5.8,-,N/A,,Clear,230,2013-07-09 23:53:00
7:53 PM,88.0,75.9,67,29.85,7.0,Calm,Calm,-,N/A,,Mostly Cloudy,0,2013-07-10 00:53:00
8:53 PM,84.0,75.9,76,29.86,10.0,NW,3.5,-,N/A,,Partly Cloudy,310,2013-07-10 01:53:00
9:53 PM,84.9,75.0,72,29.87,10.0,NW,4.6,-,N/A,,Mostly Cloudy,320,2013-07-10 02:53:00
10:53 PM,80.1,73.9,81,29.87,10.0,Calm,Calm,-,N/A,,Partly Cloudy,0,2013-07-10 03:53:00
11:53 PM,82.0,75.0,79,29.87,10.0,North,3.5,-,N/A,,Partly Cloudy,360,2013-07-10 04:53:00